Weather in Khomutove

Ukraine / Donetsk Region     47°15′17″N   38°08′17″E
temp.,
°C
wind,
m/s
gust,
m/s
humid.,
%
clouds,
%
prec.,
mm/h
press.,
hPa
HPBL,
m
15 april, thu
thu1500:00+7wsw228920 0.0 101726
03:00+7sse11888 0.0 101610
06:00+7sse3489100 0.0 101676
09:00+10sse4583100 0.0 1017255
12:00+13sse57625 0.0 1016674
15:00+11s6108460 0.8 1016593
18:00+11ssw58820 0.0 1016507
21:00+8sw34920 0.0 101798
16 april, fri
fri1600:00+8sw23880 0.0 101753
03:00+7sw35925 0.0 1017102
06:00+6sw239110 0.0 101858
09:00+10ssw45695 0.0 1019762
12:00+11ssw5662100 0.0 10191032
15:00+11ssw566170 0.0 1020858
18:00+10sw45665 0.0 1019501
21:00+8ssw2579100 0.0 1020156
17 april, sat
sat1700:00+8ssw238491 0.0 102056
03:00+7ssw34925 0.2 102079
06:00+6w35925 0.2 1020126
09:00+9wnw45653 0.2 1022665
12:00+12wsw455216 0.0 10221438
15:00+11wsw556052 0.0 10221184
18:00+10sw446517 0.0 1022812
21:00+8wsw24814 0.0 102387
18 april, sun
sun1800:00+7n33755 0.0 102266
03:00+6ne337627 0.0 102154
06:00+5ene3379100 0.0 102157
09:00+9ene3465100 0.0 1020433
12:00+11e2259100 0.1 1019863
15:00+13e224883 0.1 10191008
18:00+13ene225070 0.0 1018856
21:00+10ese22625 0.0 101815
19 april, mon
mon1900:00+8se01765 0.0 101910
03:00+7nne22755 0.0 101822
06:00+7ne3374100 0.0 101847
09:00+12ene3558100 0.0 1018435
12:00+15e4550100 0.0 10161232
15:00+16e4547100 0.0 10151329
18:00+13se3565100 0.1 1014250
21:00+11e4890100 1.3 1013428